Location: Unspecified
(0.0000°N, 0.0000°E)
Time: 06:00:44
(UTC+00:00)

deb Explorer IX - Visible Passes

Search period start: 05 July 2015 00:00
Search period end: 15 July 2015 00:00
Orbit: 544 x 1153 km, 38.8° (Epoch: 02 July)

Date Brightness Start Highest point End Pass type
(mag) Time Alt. Az. Time Alt. Az. Time Alt. Az.
05 Jul ? 05:32:00 10° NNW 05:37:40 28° NE 05:43:58 10° E visible
05 Jul ? 20:11:03 10° WNW 20:12:57 13° NW 20:14:41 10° NNW visible
06 Jul ? 05:17:02 10° NNW 05:22:49 32° NE 05:29:19 10° ESE visible
06 Jul ? 19:57:33 10° NW 19:58:19 10° NW 19:58:51 10° NNW visible
07 Jul ? 05:02:05 10° NNW 05:07:58 36° NE 05:14:38 10° ESE visible
08 Jul ? 04:47:11 10° NNW 04:53:07 40° NE 04:59:53 10° ESE visible
09 Jul ? 04:32:19 10° NNW 04:38:15 45° NE 04:45:06 10° ESE visible
10 Jul ? 04:17:28 10° NNW 04:23:23 51° NE 04:30:16 10° ESE visible
11 Jul ? 04:04:07 19° NNW 04:08:30 58° NE 04:15:24 10° ESE visible
12 Jul ? 03:52:31 55° N 03:53:38 67° NE 04:00:30 10° ESE visible
12 Jul ? 05:36:31 10° W 05:41:49 25° SW 05:47:28 10° SSE visible
13 Jul ? 03:40:35 49° ESE 03:40:35 49° ESE 03:45:34 10° SE visible
13 Jul ? 05:22:34 11° W 05:27:02 21° SW 05:32:09 10° S visible
14 Jul ? 03:28:17 22° SE 03:28:17 22° SE 03:30:35 10° SE visible
14 Jul ? 05:10:15 16° SW 05:12:15 18° SSW 05:16:43 10° S visible
